[[{"header":{"parameterUnit":"m.s-1","parameterCategory":2,"la1":30.2991,"la2":30.254,"lo1":-89.0895,"lo2":-89.0444,"dy":0.0017,"dx":0.0017,"nx":28,"ny":28,"refTime":"2025-11-07T03:00:00:Z","depth":"0","parameterNumber":2,"parameterNumberName":"U-component_of_CURRENTS"},"data":[0,0,0,0,0,0,0,0,0,0,0,0,0,0,0,0,0,0,0,0,0,0,0,0,0,0,0,0,0,0,0,0,0,0,0,0,0,0,0,0,0,0,0,0,0,0,0,0,0,0,0,0,0,0,0,0,0,0,-0.2927,-0.2927,0,-0.2944,-0.2944,-0.2943,-0.2934,-0.2933,-0.2933,-0.2933,-0.2913,-0.2913,-0.2913,0,0,0,0,0,0,0,0,0,0,0,0,0,-0.292,-0.292,-0.2927,-0.2927,-0.2928,-0.2944,-0.2943,-0.2943,-0.2934,-0.2933,-0.2933,-0.2933,-0.2914,-0.2913,-0.2913,0,0,0,0,0,0,0,0,0,0,0,0,0,-0.2926,-0.292,-0.2926,-0.2927,-0.2927,-0.2944,-0.2943,-0.2943,-0.2934,-0.2933,-0.2933,-0.2933,-0.2914,-0.2913,-0.2913,-0.2915,0,0,-0.2911,-0.2911,0,0,0,0,0,0,0,0,-0.2925,-0.2925,-0.2926,-0.2927,-0.2928,-0.2939,-0.2934,-0.2933,-0.2934,-0.2928,-0.2933,-0.2933,-0.2921,-0.292,-0.2919,-0.2914,-0.2913,-0.2911,-0.2911,-0.291,-0.291,0,0,0,0,0,0,0,-0.2925,-0.2925,-0.293,-0.2927,-0.2928,-0.2939,-0.2938,-0.2934,-0.2923,-0.2928,-0.2929,-0.2936,-0.292,-0.292,-0.2919,-0.2913,-0.2911,-0.291,-0.291,-0.291,-0.2903,-0.2903,0,0,0,0,0,0,-0.2928,-0.2924,-0.293,-0.2931,-0.2929,-0.2939,-0.2939,-0.2933,-0.2923,-0.2923,-0.2936,-0.2935,-0.2921,-0.292,-0.2918,-0.2923,-0.291,-0.291,-0.291,-0.2903,-0.2903,-0.2903,0,0,0,0,0,0,-0.2927,-0.2927,-0.2929,-0.2931,-0.2933,-0.2939,-0.2933,-0.2934,-0.2935,-0.293,-0.2928,-0.2937,-0.2921,-0.2919,-0.2913,-0.2922,-0.291,-0.2909,-0.2903,-0.2903,-0.2903,-0.2931,0,0,0,0,0,0,-0.2927,-0.2927,-0.2916,-0.2931,-0.2933,-0.2939,-0.2934,-0.2934,-0.2941,-0.294,-0.2931,-0.2929,-0.292,-0.2914,-0.2913,-0.2921,-0.2909,-0.2903,-0.2903,-0.2903,-0.293,-0.2933,-0.2934,0,0,0,0,0,-0.2926,-0.2915,-0.2915,-0.2916,-0.2919,-0.294,-0.2941,-0.2944,-0.2941,-0.2943,-0.2935,-0.2929,-0.2915,-0.2914,-0.2912,-0.2921,-0.2902,-0.2903,-0.2903,-0.2929,-0.2932,-0.2934,0,0,0,0,0,0,-0.2908,-0.2913,-0.2914,-0.2904,-0.2922,-0.294,-0.2938,-0.2946,-0.2942,-0.2937,-0.293,-0.2927,-0.2928,-0.2918,-0.2917,-0.2919,-0.2908,-0.2908,-0.2929,-0.2931,-0.2933,-0.2935,-0.2908,0,0,0,0,0,-0.2899,-0.2883,-0.2908,-0.2897,-0.2909,-0.2925,-0.2931,-0.2939,-0.2944,-0.2941,-0.2937,-0.2929,-0.2928,-0.2924,-0.2919,-0.2919,-0.2902,-0.2923,-0.2925,-0.2927,-0.2926,-0.2921,-0.2923,-0.2904,-0.2904,-0.2904,0,0,-0.2881,-0.2888,-0.2874,-0.2891,-0.2902,-0.2925,-0.2926,-0.294,-0.2955,-0.294,-0.2943,-0.2937,-0.293,-0.293,-0.2929,-0.2923,-0.2919,-0.2927,-0.2929,-0.2928,-0.2922,-0.2924,-0.2925,-0.2904,-0.2904,-0.2904,0,0,-0.286,-0.2855,-0.2847,-0.287,-0.2897,-0.2915,-0.2923,-0.2946,-0.2951,-0.2959,-0.2953,-0.2949,-0.2945,-0.2943,-0.2941,-0.2951,-0.2932,-0.2951,-0.2962,-0.2957,-0.2959,-0.296,-0.2923,-0.2921,-0.295,-0.295,-0.295,0,-0.2845,-0.2841,-0.285,-0.287,-0.2889,-0.2915,-0.2934,-0.2949,-0.2964,-0.297,-0.2962,-0.2963,-0.2952,-0.2962,-0.2961,-0.2956,-0.294,-0.2955,-0.2961,-0.2962,-0.2962,-0.2924,-0.2921,-0.2952,-0.2952,-0.2951,-0.2951,0,-0.2828,-0.2838,-0.2842,-0.287,-0.2893,-0.2911,-0.295,-0.2965,-0.2974,-0.2987,-0.2997,-0.2986,-0.2984,-0.2984,-0.2973,-0.2979,-0.296,-0.2966,-0.2956,-0.2966,-0.2924,-0.2921,-0.2954,-0.2953,-0.2953,-0.2952,0,0,-0.2754,-0.2817,-0.2815,-0.2842,-0.2896,-0.2914,-0.2949,-0.2985,-0.3003,-0.3013,-0.3025,-0.3024,-0.3017,-0.3015,-0.3007,-0.3,-0.298,-0.2984,-0.2983,-0.2949,-0.2946,-0.2837,-0.2822,-0.2993,-0.2993,-0.2993,-0.2908,0,-0.2738,-0.2776,-0.2811,-0.2848,-0.2876,-0.2925,-0.2958,-0.2994,-0.3014,-0.303,-0.3034,-0.3038,-0.3032,-0.3026,-0.3022,-0.2995,-0.2976,-0.3001,-0.2939,-0.2937,-0.2841,-0.2817,-0.2688,-0.2594,-0.2904,-0.2904,-0.2903,0,-0.2701,-0.2739,-0.2775,-0.2852,-0.2868,-0.2893,-0.2948,-0.2981,-0.3023,-0.3039,-0.3055,-0.3057,-0.305,-0.3041,-0.3005,-0.3023,-0.2982,-0.2959,-0.2955,-0.2842,-0.2821,-0.2637,-0.2575,-0.2561,-0.2898,-0.2898,-0.2899,0,-0.2633,-0.2706,-0.2733,-0.2759,-0.2851,-0.2871,-0.2912,-0.297,-0.2997,-0.3035,-0.3048,-0.3059,-0.3049,-0.3024,-0.2968,-0.2989,-0.2912,-0.2936,-0.2798,-0.2789,-0.2659,-0.2638,-0.2577,-0.2902,-0.2902,-0.2903,-0.2903,0,-0.2593,-0.2609,-0.2704,-0.2719,-0.275,-0.2829,-0.286,-0.2907,-0.2967,-0.2982,-0.3036,-0.3035,-0.3046,-0.3007,-0.2963,-0.2849,-0.2904,-0.2782,-0.2759,-0.2662,-0.2643,-0.2608,-0.2649,-0.2899,-0.29,-0.2901,-0.2901,0,-0.2496,-0.2563,-0.2598,-0.2693,-0.2717,-0.2731,-0.2818,-0.2839,-0.2918,-0.2936,-0.2946,-0.3004,-0.2949,-0.2928,-0.2869,-0.2819,-0.2679,-0.2682,-0.2545,-0.2507,-0.2364,-0.2412,-0.2331,-0.2262,-0.2518,-0.2515,-0.2512,0,-0.2445,-0.2454,-0.2545,-0.2558,-0.2593,-0.264,-0.2668,-0.2781,-0.2811,-0.2896,-0.2888,-0.2879,-0.2817,-0.2698,-0.261,-0.2491,-0.253,-0.233,-0.2348,-0.2316,-0.2354,-0.2406,-0.2359,-0.2182,-0.2177,-0.2173,-0.217,0,-0.2335,-0.2365,-0.2393,-0.2431,-0.2461,-0.2503,-0.2558,-0.2585,-0.2703,-0.2726,-0.2721,-0.2678,-0.2581,-0.2409,-0.2289,-0.2215,-0.2272,-0.2237,-0.225,-0.2111,-0.212,-0.2054,-0.2273,-0.2132,-0.2135,-0.2138,-0.214,-0.2142,-0.2231,-0.2215,-0.2253,-0.2274,-0.2308,-0.2329,-0.2302,-0.2384,-0.2403,-0.2393,-0.2481,-0.2369,-0.2279,-0.2077,-0.1999,-0.1861,-0.1969,-0.1827,-0.1892,-0.1952,-0.187,-0.1981,-0.1793,-0.1794,-0.1796,-0.1797,-0.1798,0,-0.2109,-0.2091,-0.2093,-0.2112,-0.2083,-0.216,-0.2187,-0.2117,-0.207,-0.2107,-0.2065,-0.1982,-0.182,-0.1764,-0.1641,-0.1557,-0.1544,-0.1546,-0.1611,-0.1582,-0.1696,-0.1664,-0.1383,-0.1383,-0.1383,-0.1383,-0.1383,-0.1383,-0.2045,-0.198,-0.1977,-0.1876,-0.1877,-0.1749,-0.1719,-0.1642,-0.1608,-0.1492,-0.1474,-0.1481,-0.1532,-0.1661,-0.154,-0.1457,-0.1459,-0.1404,-0.1465,-0.1581,-0.1614,-0.1646,-0.1623,-0.1338,-0.1338,-0.127,-0.1269,-0.1269]},{"header":{"parameterUnit":"m.s-1","parameterCategory":2,"la1":30.2991,"la2":30.254,"lo1":-89.0895,"lo2":-89.0444,"dy":0.0017,"dx":0.0017,"nx":28,"ny":28,"refTime":"2025-11-07T03:00:00:Z","depth":"0","parameterNumber":3,"parameterNumberName":"V-component_of_CURRENTS"},"data":[0,0,0,0,0,0,0,0,0,0,0,0,0,0,0,0,0,0,0,0,0,0,0,0,0,0,0,0,0,0,0,0,0,0,0,0,0,0,0,0,0,0,0,0,0,0,0,0,0,0,0,0,0,0,0,0,0,0,-0.0182,-0.0181,0,-0.0066,-0.0065,-0.0063,0.0029,0.003,0.003,0.0031,0.0214,0.0218,0.0222,0,0,0,0,0,0,0,0,0,0,0,0,0,-0.0247,-0.0246,-0.0182,-0.0181,-0.0179,-0.0066,-0.0065,-0.0063,0.0029,0.003,0.0031,0.0031,0.0212,0.0217,0.0222,0,0,0,0,0,0,0,0,0,0,0,0,0,-0.0183,-0.0246,-0.0182,-0.0121,-0.0114,-0.0067,-0.0065,-0.0062,0.0028,0.003,0.0031,0.0032,0.0211,0.0217,0.0223,0.0236,0,0,0.0242,0.0244,0,0,0,0,0,0,0,0,-0.0186,-0.018,-0.0131,-0.0125,-0.0118,-0.0033,-0.002,0.004,0.0028,-0.0025,0.0031,0.0033,0.0136,0.0148,0.0168,0.0245,0.0253,0.0242,0.0246,0.0249,0.025,0,0,0,0,0,0,0,-0.0191,-0.0184,-0.0135,-0.013,-0.0122,-0.0073,-0.0063,-0.0008,0.0049,-0.002,-0.0013,-0.0003,0.014,0.0162,0.0173,0.0256,0.0242,0.0247,0.0251,0.0254,0.0376,0.0376,0,0,0,0,0,0,-0.0213,-0.0189,-0.0139,-0.0132,-0.0151,-0.0073,-0.0062,-0.006,0.0048,0.0064,-0.0004,0.0001,0.0151,0.0166,0.018,0.0217,0.0248,0.0254,0.0258,0.0377,0.0376,0.0376,0,0,0,0,0,0,-0.0215,-0.021,-0.0143,-0.0158,-0.0146,-0.0074,-0.0072,-0.0059,-0.0035,0.0059,0.0078,0.0006,0.0152,0.0171,0.0225,0.0225,0.0257,0.0263,0.0377,0.0377,0.0376,0.0283,0,0,0,0,0,0,-0.0218,-0.0212,-0.0221,-0.016,-0.0146,-0.0121,-0.0073,-0.0057,-0.0031,-0.0023,0.0074,0.0092,0.0155,0.0216,0.0231,0.0234,0.0267,0.0378,0.0377,0.0376,0.0287,0.028,0.0273,0,0,0,0,0,-0.0221,-0.0236,-0.0223,-0.0216,-0.0161,-0.0122,-0.0111,-0.0053,-0.0032,-0.0027,0.0037,0.0089,0.0222,0.022,0.0239,0.0243,0.0378,0.0377,0.0376,0.029,0.0281,0.0273,0,0,0,0,0,0,-0.0268,-0.0227,-0.021,-0.0213,-0.0176,-0.0107,-0.0099,-0.0064,-0.0011,-0.0003,0.0084,0.0106,0.0153,0.0206,0.0201,0.0275,0.0308,0.0311,0.0236,0.0229,0.0222,0.0208,0.0273,0,0,0,0,0,-0.0287,-0.0289,-0.0238,-0.0243,-0.0228,-0.0168,-0.0147,-0.0111,-0.0055,-0.0031,0.0035,0.0104,0.0161,0.02,0.0256,0.0297,0.0356,0.0311,0.0304,0.0298,0.0299,0.0379,0.0379,0.0372,0.0372,0.0373,0,0,-0.0307,-0.0285,-0.0287,-0.0253,-0.022,-0.0206,-0.0152,-0.0127,-0.0111,-0.002,0.0019,0.0079,0.0164,0.021,0.0236,0.0257,0.033,0.0297,0.0291,0.0295,0.0378,0.0379,0.038,0.0372,0.0372,0.0372,0,0,-0.0348,-0.0331,-0.0345,-0.032,-0.028,-0.0241,-0.024,-0.0179,-0.0145,-0.0105,-0.0037,0.0021,0.0106,0.0172,0.0215,0.0204,0.0285,0.0218,0.0183,0.026,0.0262,0.0264,0.0332,0.0341,0.0222,0.0222,0.0221,0,-0.0373,-0.0385,-0.0342,-0.0346,-0.0331,-0.0264,-0.027,-0.0227,-0.0156,-0.0128,-0.0105,0.0025,0.0091,0.0162,0.0157,0.019,0.0242,0.0206,0.0251,0.0255,0.0258,0.0329,0.034,0.0217,0.0218,0.0218,0.0218,0,-0.042,-0.0428,-0.0433,-0.0418,-0.0395,-0.0391,-0.033,-0.0302,-0.0257,-0.0204,-0.0134,-0.0044,0.0037,0.0064,0.011,0.0167,0.0198,0.0227,0.027,0.0253,0.0328,0.0342,0.021,0.0212,0.0213,0.0215,0,0,-0.0475,-0.047,-0.0471,-0.0481,-0.0435,-0.0423,-0.0396,-0.0345,-0.0322,-0.0246,-0.0204,-0.0107,-0.0053,-0.0001,0.0068,0.0137,0.0202,0.0183,0.0189,0.0246,0.0369,0.0413,0.0433,0.0238,0.024,0.0241,0.0408,0,-0.0524,-0.0562,-0.0534,-0.0558,-0.0571,-0.0505,-0.0484,-0.0427,-0.0363,-0.0303,-0.0196,-0.0129,-0.0077,-0.0038,0.0034,0.0162,0.0234,0.0154,0.0381,0.0387,0.0426,0.0449,0.0491,0.0645,0.0421,0.0423,0.0425,0,-0.0574,-0.0595,-0.0637,-0.0634,-0.0631,-0.0627,-0.0578,-0.0549,-0.0443,-0.039,-0.03,-0.0209,-0.0096,-0.0054,0.0154,0.01,0.022,0.0321,0.033,0.0416,0.0457,0.0629,0.0679,0.0837,0.0446,0.0444,0.0443,0,-0.0642,-0.0662,-0.0702,-0.0702,-0.0684,-0.0682,-0.0661,-0.0578,-0.0547,-0.0438,-0.0395,-0.025,-0.0163,-0.0007,0.0197,0.0178,0.0434,0.044,0.0598,0.0603,0.0708,0.0718,0.0937,0.0591,0.0591,0.059,0.059,0,-0.0705,-0.0735,-0.0741,-0.0765,-0.0799,-0.0754,-0.0757,-0.0708,-0.0626,-0.0575,-0.0449,-0.0363,-0.0146,0.0029,0.0193,0.0444,0.0439,0.0604,0.0656,0.0675,0.068,0.0877,0.0923,0.0597,0.0595,0.0594,0.0593,0,-0.077,-0.0775,-0.0825,-0.0833,-0.0836,-0.086,-0.0834,-0.0823,-0.0738,-0.0666,-0.0631,-0.0429,-0.0192,0.0034,0.0321,0.0453,0.0791,0.0769,0.0772,0.082,0.1081,0.1118,0.139,0.1495,0.0957,0.0959,0.0961,0,-0.0804,-0.084,-0.0887,-0.0922,-0.093,-0.0951,-0.0958,-0.089,-0.0865,-0.069,-0.0655,-0.041,-0.0207,0.0215,0.0498,0.0806,0.0927,0.1013,0.0984,0.1119,0.1199,0.1227,0.1297,0.1089,0.1092,0.1094,0.1096,0,-0.0866,-0.0884,-0.0926,-0.1005,-0.1037,-0.1065,-0.1063,-0.1054,-0.0941,-0.0835,-0.0636,-0.0451,-0.0039,0.0345,0.0726,0.0908,0.1128,0.1067,0.1226,0.1338,0.1368,0.1485,0.0944,0.1116,0.1114,0.1112,0.1111,0.111,-0.0888,-0.0949,-0.1006,-0.1063,-0.1119,-0.1145,-0.1118,-0.1066,-0.0974,-0.0717,-0.0616,-0.0231,0.022,0.0774,0.0971,0.1374,0.1324,0.1494,0.1534,0.1556,0.1642,0.1132,0.1342,0.1341,0.1341,0.134,0.134,0,-0.0871,-0.0958,-0.1052,-0.1118,-0.1165,-0.1174,-0.1149,-0.1045,-0.0872,-0.0603,-0.0351,0.0224,0.069,0.1116,0.1616,0.1832,0.1877,0.1936,0.1998,0.2052,0.1637,0.1627,0.1884,0.1884,0.1884,0.1884,0.1884,0.1883,-0.0856,-0.0948,-0.1008,-0.1101,-0.115,-0.1103,-0.105,-0.0877,-0.0653,-0.0168,0.0254,0.0537,0.1033,0.1741,0.2214,0.2263,0.2448,0.2425,0.2525,0.2233,0.2194,0.2158,0.2163,0.2528,0.2529,0.2943,0.2947,0.295]}],[{"header":{"parameterUnit":"m.s-1","parameterCategory":2,"la1":30.2991,"la2":30.254,"lo1":-89.0895,"lo2":-89.0444,"dy":0.0017,"dx":0.0017,"nx":28,"ny":28,"refTime":"2025-11-07T03:00:00:Z","depth":"2","parameterNumber":2,"parameterNumberName":"U-component_of_CURRENTS"},"data":[0,0,0,0,0,0,0,0,0,0,0,0,0,0,0,0,0,0,0,0,0,0,0,0,0,0,0,0,0,0,0,0,0,0,0,0,0,0,0,0,0,0,0,0,0,0,0,0,0,0,0,0,0,0,0,0,0,0,-0.2645,-0.2645,0,-0.2674,-0.2675,-0.2675,-0.2658,-0.2657,-0.2657,-0.2656,-0.2652,-0.2653,-0.2653,0,0,0,0,0,0,0,0,0,0,0,0,0,-0.2555,-0.2557,-0.2645,-0.2645,-0.2646,-0.2674,-0.2675,-0.2675,-0.2658,-0.2657,-0.2656,-0.2656,-0.2652,-0.2653,-0.2653,0,0,0,0,0,0,0,0,0,0,0,0,0,-0.2588,-0.2557,-0.2645,-0.2643,-0.2643,-0.2674,-0.2675,-0.2675,-0.2658,-0.2657,-0.2656,-0.2655,-0.2652,-0.2653,-0.2653,-0.2676,0,0,-0.2655,-0.2656,0,0,0,0,0,0,0,0,-0.2586,-0.2591,-0.2642,-0.2643,-0.2643,-0.2664,-0.2642,-0.2674,-0.2658,-0.265,-0.2656,-0.2655,-0.2655,-0.2656,-0.266,-0.2676,-0.2676,-0.2655,-0.2656,-0.2656,-0.2656,0,0,0,0,0,0,0,-0.2584,-0.259,-0.2654,-0.2643,-0.2644,-0.2634,-0.2638,-0.2648,-0.2655,-0.265,-0.265,-0.2657,-0.2655,-0.266,-0.266,-0.2676,-0.2655,-0.2656,-0.2657,-0.2657,-0.2696,-0.2696,0,0,0,0,0,0,-0.2588,-0.2588,-0.2653,-0.2655,-0.2615,-0.2637,-0.2641,-0.2656,-0.2655,-0.2655,-0.2658,-0.2656,-0.2659,-0.2659,-0.266,-0.2681,-0.2656,-0.2657,-0.2657,-0.2695,-0.2696,-0.2697,0,0,0,0,0,0,-0.2586,-0.2593,-0.2652,-0.2623,-0.263,-0.264,-0.2657,-0.2657,-0.2664,-0.2662,-0.2661,-0.2665,-0.2658,-0.2659,-0.2668,-0.2681,-0.2657,-0.2658,-0.2695,-0.2695,-0.2696,-0.2727,0,0,0,0,0,0,-0.2583,-0.2593,-0.2602,-0.2624,-0.2632,-0.2672,-0.2658,-0.2658,-0.2671,-0.2669,-0.2668,-0.2666,-0.2657,-0.2667,-0.2669,-0.2681,-0.2658,-0.2694,-0.2695,-0.2696,-0.2725,-0.2729,-0.2732,0,0,0,0,0,-0.258,-0.2595,-0.2603,-0.2611,-0.2647,-0.2672,-0.2676,-0.2677,-0.2673,-0.2679,-0.2676,-0.2666,-0.2675,-0.2668,-0.267,-0.2683,-0.2693,-0.2695,-0.2696,-0.2724,-0.2728,-0.2732,0,0,0,0,0,0,-0.2557,-0.2596,-0.2605,-0.263,-0.2652,-0.267,-0.2676,-0.2684,-0.2688,-0.2684,-0.2678,-0.2677,-0.2689,-0.2684,-0.2677,-0.2697,-0.2682,-0.2684,-0.2703,-0.2707,-0.271,-0.2708,-0.2659,0,0,0,0,0,-0.2561,-0.2581,-0.2616,-0.2633,-0.2647,-0.2665,-0.2675,-0.2682,-0.2691,-0.2692,-0.2693,-0.2692,-0.2698,-0.27,-0.2703,-0.2718,-0.2701,-0.2727,-0.273,-0.2733,-0.2732,-0.273,-0.2733,-0.2701,-0.2701,-0.2701,0,0,-0.2556,-0.2579,-0.259,-0.263,-0.2644,-0.267,-0.2668,-0.2688,-0.2706,-0.2692,-0.2708,-0.2707,-0.2705,-0.2718,-0.2723,-0.2714,-0.273,-0.2735,-0.2737,-0.2735,-0.2731,-0.2734,-0.2737,-0.2702,-0.2702,-0.2702,0,0,-0.2552,-0.2579,-0.2595,-0.2621,-0.2653,-0.267,-0.268,-0.2708,-0.2715,-0.2737,-0.2729,-0.2734,-0.2746,-0.2744,-0.2746,-0.2772,-0.275,-0.2775,-0.279,-0.2788,-0.279,-0.2792,-0.2759,-0.2758,-0.2775,-0.2775,-0.2775,0,-0.2541,-0.2573,-0.2601,-0.2627,-0.2647,-0.2674,-0.2697,-0.2717,-0.2741,-0.275,-0.2743,-0.2763,-0.2757,-0.2776,-0.2778,-0.278,-0.2764,-0.2775,-0.2792,-0.2794,-0.2795,-0.2761,-0.2759,-0.2777,-0.2777,-0.2776,-0.2776,0,-0.2552,-0.2582,-0.2594,-0.2638,-0.2665,-0.2688,-0.2728,-0.2751,-0.2764,-0.2779,-0.2801,-0.2798,-0.2806,-0.2809,-0.28,-0.2814,-0.2793,-0.2797,-0.2781,-0.28,-0.2763,-0.276,-0.2779,-0.2779,-0.2778,-0.2778,0,0,-0.2506,-0.2586,-0.2588,-0.2615,-0.2674,-0.2695,-0.2737,-0.2777,-0.2799,-0.282,-0.2838,-0.285,-0.2846,-0.2847,-0.2842,-0.2839,-0.2827,-0.2822,-0.2821,-0.2786,-0.28,-0.2698,-0.2685,-0.2837,-0.2837,-0.2837,-0.2763,0,-0.25,-0.2549,-0.2592,-0.2636,-0.2666,-0.2716,-0.2753,-0.2794,-0.2821,-0.2845,-0.2855,-0.2868,-0.2864,-0.2863,-0.2863,-0.2838,-0.2825,-0.2845,-0.2788,-0.2785,-0.2691,-0.268,-0.2485,-0.2396,-0.2761,-0.276,-0.276,0,-0.2485,-0.2525,-0.2569,-0.2645,-0.2662,-0.2692,-0.2753,-0.279,-0.284,-0.2861,-0.2884,-0.2891,-0.2893,-0.2884,-0.2857,-0.2871,-0.2835,-0.2813,-0.281,-0.2703,-0.2679,-0.2439,-0.2377,-0.2756,-0.2756,-0.2756,-0.2757,0,-0.2425,-0.2502,-0.2535,-0.2562,-0.2653,-0.2678,-0.272,-0.2783,-0.2814,-0.2862,-0.2879,-0.2898,-0.2894,-0.2875,-0.2827,-0.2843,-0.278,-0.2798,-0.2672,-0.2664,-0.2478,-0.2453,-0.2773,-0.2773,-0.2773,-0.2773,-0.2773,0,-0.2395,-0.2417,-0.251,-0.2528,-0.2564,-0.2641,-0.2679,-0.2729,-0.2793,-0.2813,-0.2872,-0.2876,-0.2894,-0.2863,-0.2824,-0.2722,-0.2775,-0.266,-0.2638,-0.2481,-0.2458,-0.2763,-0.2762,-0.277,-0.2771,-0.2772,-0.2772,0,-0.2312,-0.238,-0.2417,-0.251,-0.2535,-0.2554,-0.2642,-0.2667,-0.2748,-0.2773,-0.2786,-0.2849,-0.2804,-0.2792,-0.2742,-0.2697,-0.2624,-0.2575,-0.2372,-0.2327,-0.251,-0.2513,-0.2431,-0.2427,-0.2424,-0.2421,-0.2418,0,-0.227,-0.2284,-0.2373,-0.2387,-0.2423,-0.2474,-0.2503,-0.2614,-0.2643,-0.2736,-0.2729,-0.2733,-0.2678,-0.2576,-0.2493,-0.2386,-0.2498,-0.2174,-0.2175,-0.2489,-0.2476,-0.2484,-0.2491,-0.1935,-0.1928,-0.1923,-0.1919,0,-0.2175,-0.2208,-0.2238,-0.2274,-0.2304,-0.2346,-0.2401,-0.2423,-0.2538,-0.2565,-0.2563,-0.2528,-0.2446,-0.2249,-0.2147,-0.2072,-0.2179,-0.2066,-0.2433,-0.2059,-0.2016,-0.2006,-0.2029,-0.1874,-0.1878,-0.1882,-0.1884,-0.1886,-0.2077,-0.2072,-0.2111,-0.2125,-0.2165,-0.2179,-0.2148,-0.2223,-0.2237,-0.2227,-0.2317,-0.2191,-0.2165,-0.1882,-0.1774,-0.1703,-0.186,-0.1797,-0.1815,-0.1837,-0.1801,-0.1755,-0.1555,-0.1557,-0.1559,-0.1561,-0.1563,0,-0.1933,-0.1944,-0.1957,-0.1969,-0.194,-0.2018,-0.2037,-0.1971,-0.1913,-0.1946,-0.1904,-0.1688,-0.1545,-0.1522,-0.1331,-0.1303,-0.1309,-0.1262,-0.1277,-0.1321,-0.1361,-0.1303,-0.0923,-0.0921,-0.092,-0.0918,0,0,-0.1852,-0.1812,-0.1819,-0.1724,-0.1727,-0.1626,-0.1589,-0.1532,-0.1504,-0.1408,-0.135,-0.1431,-0.1449,-0.1183,-0.1127,-0.0989,-0.1143,-0.0935,-0.1443,-0.1502,-0.154,-0.1659,-0.1618,0,0,0,0,0]},{"header":{"parameterUnit":"m.s-1","parameterCategory":2,"la1":30.2991,"la2":30.254,"lo1":-89.0895,"lo2":-89.0444,"dy":0.0017,"dx":0.0017,"nx":28,"ny":28,"refTime":"2025-11-07T03:00:00:Z","depth":"2","parameterNumber":3,"parameterNumberName":"V-component_of_CURRENTS"},"data":[0,0,0,0,0,0,0,0,0,0,0,0,0,0,0,0,0,0,0,0,0,0,0,0,0,0,0,0,0,0,0,0,0,0,0,0,0,0,0,0,0,0,0,0,0,0,0,0,0,0,0,0,0,0,0,0,0,0,-0.0291,-0.029,0,-0.019,-0.0189,-0.0188,-0.0117,-0.0117,-0.0116,-0.0116,0.0047,0.0051,0.0055,0,0,0,0,0,0,0,0,0,0,0,0,0,-0.0374,-0.0373,-0.0291,-0.029,-0.0289,-0.019,-0.0189,-0.0187,-0.0117,-0.0117,-0.0116,-0.0116,0.0046,0.0051,0.0055,0,0,0,0,0,0,0,0,0,0,0,0,0,-0.0311,-0.0373,-0.0291,-0.0243,-0.0237,-0.0191,-0.0189,-0.0187,-0.0117,-0.0117,-0.0116,-0.0115,0.0044,0.005,0.0056,0.0079,0,0,0.0074,0.0077,0,0,0,0,0,0,0,0,-0.0315,-0.0308,-0.0251,-0.0246,-0.024,-0.0167,-0.0159,-0.0095,-0.0118,-0.0162,-0.0116,-0.0115,-0.002,-0.0009,0.001,0.0087,0.0094,0.0074,0.0078,0.0081,0.0082,0,0,0,0,0,0,0,-0.032,-0.0312,-0.025,-0.025,-0.0243,-0.021,-0.02,-0.0146,-0.0094,-0.0158,-0.0153,-0.0144,-0.0016,0.0004,0.0014,0.0096,0.0074,0.008,0.0083,0.0086,0.0216,0.0216,0,0,0,0,0,0,-0.0338,-0.0316,-0.0253,-0.0247,-0.0278,-0.0209,-0.0198,-0.019,-0.0095,-0.0081,-0.0144,-0.0141,-0.0007,0.0007,0.002,0.0061,0.0081,0.0086,0.0089,0.0216,0.0216,0.0216,0,0,0,0,0,0,-0.034,-0.0333,-0.0257,-0.028,-0.0268,-0.0209,-0.0199,-0.0188,-0.0167,-0.0086,-0.007,-0.0135,-0.0006,0.0012,0.0066,0.0067,0.0089,0.0094,0.0217,0.0216,0.0216,0.0137,0,0,0,0,0,0,-0.0343,-0.0335,-0.0336,-0.0282,-0.0268,-0.0236,-0.02,-0.0187,-0.0163,-0.0158,-0.0073,-0.0057,-0.0004,0.0057,0.0072,0.0076,0.0099,0.0217,0.0216,0.0216,0.014,0.0134,0.013,0,0,0,0,0,-0.0346,-0.0351,-0.0337,-0.0329,-0.0272,-0.0236,-0.0226,-0.018,-0.0164,-0.0159,-0.0101,-0.006,0.0067,0.0061,0.0079,0.0085,0.0217,0.0217,0.0216,0.0142,0.0136,0.013,0,0,0,0,0,0,-0.0387,-0.0343,-0.0326,-0.0318,-0.0284,-0.0225,-0.0217,-0.0188,-0.014,-0.0134,-0.0058,-0.0038,0.0007,0.0056,0.0048,0.0122,0.0148,0.0151,0.0086,0.008,0.0075,0.0059,0.0104,0,0,0,0,0,-0.04,-0.0393,-0.0345,-0.034,-0.0326,-0.0275,-0.0256,-0.0226,-0.0177,-0.0155,-0.0097,-0.0034,0.002,0.0056,0.0108,0.0152,0.0202,0.0167,0.0162,0.0157,0.0156,0.0228,0.0229,0.0216,0.0216,0.0216,0,0,-0.0414,-0.039,-0.0386,-0.0348,-0.0319,-0.0306,-0.0261,-0.0239,-0.0223,-0.0144,-0.0107,-0.0052,0.0025,0.0071,0.0097,0.0114,0.0186,0.0157,0.0152,0.0154,0.0228,0.023,0.0231,0.0216,0.0216,0.0216,0,0,-0.0445,-0.0421,-0.0427,-0.0404,-0.0368,-0.0334,-0.0332,-0.0278,-0.0249,-0.0208,-0.015,-0.0095,-0.0014,0.0045,0.0085,0.0085,0.015,0.0098,0.007,0.0139,0.0141,0.0143,0.0199,0.0207,0.0103,0.0103,0.0103,0,-0.0468,-0.0466,-0.0424,-0.0424,-0.0412,-0.0353,-0.0357,-0.0317,-0.0253,-0.0227,-0.0208,-0.0086,-0.0024,0.0044,0.0042,0.0074,0.0118,0.0085,0.0132,0.0135,0.0139,0.0196,0.0206,0.0099,0.0099,0.01,0.01,0,-0.0499,-0.05,-0.0503,-0.0484,-0.0463,-0.0458,-0.0403,-0.0377,-0.0337,-0.029,-0.0223,-0.0138,-0.0065,-0.0037,0.0005,0.006,0.0083,0.011,0.0144,0.0135,0.0197,0.0208,0.0093,0.0095,0.0096,0.0097,0,0,-0.0544,-0.0531,-0.0531,-0.054,-0.0496,-0.0486,-0.0458,-0.0412,-0.0392,-0.032,-0.0282,-0.0188,-0.014,-0.0092,-0.0028,0.0036,0.0095,0.0076,0.0081,0.0124,0.0239,0.0261,0.0276,0.0128,0.013,0.0131,0.0268,0,-0.0584,-0.0612,-0.0583,-0.0602,-0.0613,-0.0555,-0.0534,-0.0482,-0.0425,-0.0372,-0.0271,-0.021,-0.016,-0.0125,-0.0056,0.0056,0.0123,0.0055,0.0248,0.0253,0.0268,0.0289,0.0256,0.0376,0.028,0.0282,0.0283,0,-0.0623,-0.0639,-0.0672,-0.067,-0.0667,-0.0663,-0.0621,-0.0594,-0.0498,-0.0451,-0.0368,-0.0286,-0.0181,-0.014,0.0047,-0.0001,0.0108,0.0198,0.0206,0.0263,0.0297,0.0373,0.0401,0.0303,0.0301,0.03,0.0299,0,-0.0684,-0.0698,-0.0732,-0.0732,-0.0715,-0.0713,-0.0695,-0.062,-0.0595,-0.0496,-0.0461,-0.0327,-0.0249,-0.0107,0.0074,0.0063,0.0284,0.0297,0.0423,0.0425,0.0455,0.0457,0.0434,0.0434,0.0434,0.0434,0.0433,0,-0.0739,-0.0764,-0.0768,-0.0789,-0.0822,-0.078,-0.0786,-0.0742,-0.0671,-0.0632,-0.0511,-0.0441,-0.0236,-0.0083,0.0066,0.028,0.0283,0.0426,0.0468,0.0425,0.0423,0.0406,0.0401,0.0439,0.0438,0.0437,0.0436,0,-0.0798,-0.0799,-0.0844,-0.0851,-0.0856,-0.0879,-0.0861,-0.0855,-0.0779,-0.0724,-0.0693,-0.0511,-0.0306,-0.0099,0.0159,0.0278,0.0474,0.0552,0.0481,0.0512,0.0567,0.0556,0.0698,0.07,0.0702,0.0703,0.0704,0,-0.0831,-0.0862,-0.0904,-0.0938,-0.0946,-0.0969,-0.0978,-0.0919,-0.0901,-0.0758,-0.0731,-0.0519,-0.0349,0.0021,0.0273,0.0544,0.0548,0.0661,0.0637,0.057,0.0598,0.0584,0.0571,0.0646,0.0647,0.0647,0.0648,0,-0.0895,-0.0908,-0.0946,-0.1021,-0.1054,-0.1084,-0.1087,-0.1088,-0.0994,-0.0908,-0.075,-0.0598,-0.0239,0.0066,0.0404,0.0555,0.0607,0.068,0.0658,0.0574,0.053,0.0554,0.0542,0.0653,0.0652,0.0652,0.0652,0.0651,-0.0935,-0.0983,-0.1034,-0.11,-0.1142,-0.1178,-0.1196,-0.1159,-0.1098,-0.0945,-0.0779,-0.0506,-0.0231,0.0267,0.0491,0.0697,0.0697,0.0747,0.0742,0.0737,0.0696,0.0657,0.0795,0.0795,0.0795,0.0796,0.0796,0,-0.0993,-0.1038,-0.1109,-0.1183,-0.124,-0.1239,-0.1248,-0.1226,-0.1142,-0.0955,-0.0755,-0.0379,-0.0028,0.0258,0.0589,0.0775,0.0753,0.0799,0.0731,0.0725,0.0721,0.0675,0.0771,0.0772,0.0772,0.0772,0,0,-0.1029,-0.1104,-0.1141,-0.1246,-0.1293,-0.1338,-0.1341,-0.1259,-0.1134,-0.0922,-0.0687,-0.0392,-0.0028,0.0204,0.0438,0.0607,0.0603,0.0617,0.0616,0.0498,0.0491,0.0675,0.0597,0,0,0,0,0]}],[{"header":{"parameterUnit":"m.s-1","parameterCategory":2,"la1":30.2991,"la2":30.254,"lo1":-89.0895,"lo2":-89.0444,"dy":0.0017,"dx":0.0017,"nx":28,"ny":28,"refTime":"2025-11-07T03:00:00:Z","depth":"4","parameterNumber":2,"parameterNumberName":"U-component_of_CURRENTS"},"data":[0,0,0,0,0,0,0,0,0,0,0,0,0,0,0,0,0,0,0,0,0,0,0,0,0,0,0,0,0,0,0,0,0,0,0,0,0,0,0,0,0,0,0,0,0,0,0,0,0,0,0,0,0,0,0,0,0,0,-0.1864,-0.1865,0,-0.1938,-0.1939,-0.1939,-0.1981,-0.1981,-0.1981,-0.1982,-0.2061,-0.2062,-0.2064,0,0,0,0,0,0,0,0,0,0,0,0,0,-0.1737,-0.1739,-0.1864,-0.1865,-0.1866,-0.1938,-0.1939,-0.194,-0.1981,-0.1981,-0.1982,-0.1982,-0.206,-0.2062,-0.2064,0,0,0,0,0,0,0,0,0,0,0,0,0,-0.1798,-0.174,-0.1864,-0.1896,-0.19,-0.1938,-0.1939,-0.194,-0.1981,-0.1981,-0.1982,-0.1982,-0.2059,-0.2062,-0.2065,-0.2074,0,0,-0.2073,-0.2074,0,0,0,0,0,0,0,0,-0.1795,-0.1803,-0.189,-0.1894,-0.1898,-0.1952,-0.1923,-0.1985,-0.1981,-0.1949,-0.1982,-0.1982,-0.2025,-0.2031,-0.2042,-0.2078,-0.2081,-0.2073,-0.2075,-0.2076,-0.2077,0,0,0,0,0,0,0,-0.1791,-0.18,-0.1892,-0.1892,-0.1896,-0.19,-0.1909,-0.1935,-0.1983,-0.1951,-0.1955,-0.1965,-0.2027,-0.2039,-0.2044,-0.2082,-0.2073,-0.2076,-0.2078,-0.2079,-0.2193,-0.2195,0,0,0,0,0,0,-0.1786,-0.1796,-0.1889,-0.1894,-0.1848,-0.1902,-0.1912,-0.1933,-0.1983,-0.1991,-0.1965,-0.1967,-0.2034,-0.2041,-0.2047,-0.2126,-0.2076,-0.2079,-0.2081,-0.2192,-0.2194,-0.2195,0,0,0,0,0,0,-0.1783,-0.1794,-0.1886,-0.1847,-0.1859,-0.1904,-0.1927,-0.1934,-0.1979,-0.1993,-0.2001,-0.2006,-0.2035,-0.2043,-0.2096,-0.2127,-0.208,-0.2083,-0.219,-0.2193,-0.2195,-0.2242,0,0,0,0,0,0,-0.1779,-0.1792,-0.1822,-0.1847,-0.1862,-0.1927,-0.1927,-0.1936,-0.1983,-0.1988,-0.203,-0.2036,-0.2036,-0.2092,-0.2099,-0.213,-0.2085,-0.2189,-0.2191,-0.2194,-0.2238,-0.2245,-0.2251,0,0,0,0,0,-0.1774,-0.1804,-0.1823,-0.1835,-0.1896,-0.1929,-0.1937,-0.1968,-0.1985,-0.2009,-0.204,-0.2036,-0.2113,-0.2096,-0.2104,-0.2136,-0.2187,-0.2191,-0.2194,-0.2236,-0.2244,-0.2251,0,0,0,0,0,0,-0.1761,-0.1812,-0.1833,-0.1878,-0.1912,-0.1937,-0.1967,-0.1989,-0.2033,-0.2047,-0.2059,-0.2067,-0.2122,-0.2125,-0.2106,-0.2176,-0.2148,-0.2153,-0.2178,-0.2185,-0.2192,-0.2181,-0.2087,0,0,0,0,0,-0.1773,-0.1815,-0.1853,-0.1892,-0.1912,-0.1948,-0.1973,-0.1996,-0.2029,-0.2051,-0.208,-0.211,-0.2136,-0.2159,-0.218,-0.2225,-0.2205,-0.2249,-0.2256,-0.2261,-0.2258,-0.2262,-0.2268,-0.2205,-0.2205,-0.2205,0,0,-0.1782,-0.1814,-0.184,-0.1894,-0.1924,-0.1958,-0.1965,-0.2012,-0.2048,-0.2052,-0.212,-0.2138,-0.2153,-0.2198,-0.2223,-0.2209,-0.2267,-0.2265,-0.2269,-0.2263,-0.2266,-0.2272,-0.2277,-0.2208,-0.2207,-0.2207,0,0,-0.1796,-0.1846,-0.1879,-0.1913,-0.1966,-0.1988,-0.201,-0.2057,-0.209,-0.2149,-0.2157,-0.2195,-0.2247,-0.2256,-0.2266,-0.2322,-0.2299,-0.2337,-0.2364,-0.2369,-0.2373,-0.2377,-0.2348,-0.2349,-0.2341,-0.2341,-0.2341,0,-0.1804,-0.1851,-0.1893,-0.1928,-0.1961,-0.2005,-0.2041,-0.2079,-0.2141,-0.2168,-0.218,-0.2254,-0.2269,-0.231,-0.2326,-0.2336,-0.2324,-0.2334,-0.2375,-0.2379,-0.2382,-0.2351,-0.2352,-0.2344,-0.2343,-0.2343,-0.2343,0,-0.183,-0.1882,-0.1904,-0.1966,-0.2006,-0.2048,-0.2099,-0.2151,-0.2197,-0.2227,-0.2294,-0.2317,-0.2354,-0.2369,-0.2366,-0.2403,-0.2381,-0.2381,-0.2352,-0.2391,-0.2356,-0.2356,-0.2347,-0.2346,-0.2346,-0.2345,0,0,-0.1803,-0.1904,-0.1915,-0.1953,-0.2034,-0.2064,-0.2134,-0.2195,-0.224,-0.2303,-0.2349,-0.2399,-0.2413,-0.2424,-0.2432,-0.2439,-0.2447,-0.2424,-0.2423,-0.2388,-0.2436,-0.227,-0.2253,-0.2459,-0.246,-0.246,-0.2397,0,-0.1811,-0.1879,-0.1932,-0.2004,-0.2042,-0.2111,-0.2168,-0.2234,-0.229,-0.2345,-0.2381,-0.2427,-0.2434,-0.2455,-0.2467,-0.2453,-0.2451,-0.2462,-0.241,-0.2407,-0.225,-0.2249,-0.2462,-0.2397,-0.2397,-0.2397,-0.2397,0,-0.1808,-0.1858,-0.1929,-0.2026,-0.205,-0.2104,-0.22,-0.2256,-0.2338,-0.238,-0.2434,-0.246,-0.249,-0.2487,-0.2485,-0.2495,-0.2469,-0.2453,-0.245,-0.2276,-0.2241,-0.2354,-0.2395,-0.2395,-0.2395,-0.2396,-0.2396,0,-0.1749,-0.1853,-0.1912,-0.1947,-0.2061,-0.2112,-0.2175,-0.2268,-0.2314,-0.24,-0.2432,-0.2481,-0.2501,-0.2495,-0.2466,-0.2482,-0.2437,-0.2452,-0.2277,-0.2264,-0.2413,-0.241,-0.2441,-0.2441,-0.2442,-0.2442,-0.2442,0,-0.1717,-0.1768,-0.1897,-0.1927,-0.1997,-0.209,-0.2165,-0.2235,-0.2323,-0.2354,-0.2442,-0.2452,-0.2507,-0.2491,-0.2464,-0.2346,-0.2434,-0.2263,-0.2234,-0.2433,-0.2433,-0.2411,-0.2409,-0.2439,-0.244,-0.244,-0.2441,0,-0.1636,-0.1727,-0.1796,-0.1927,-0.1971,-0.2019,-0.2147,-0.2185,-0.2291,-0.2331,-0.2356,-0.2432,-0.2399,-0.2412,-0.2384,-0.2315,-0.2238,-0.2178,-0.2361,-0.2347,-0.2064,-0.2065,-0.1971,-0.1965,-0.1959,-0.1955,-0.1951,0,-0.1597,-0.1629,-0.1772,-0.1809,-0.1873,-0.1965,-0.2014,-0.2147,-0.2178,-0.2285,-0.2273,-0.2299,-0.2321,-0.2129,-0.218,-0.2094,-0.208,-0.2032,-0.2071,-0.2033,-0.2015,-0.2025,-0.2033,-0.1942,-0.1941,-0.1939,-0.1938,0,-0.1507,-0.1577,-0.1631,-0.1707,-0.1774,-0.1836,-0.1919,-0.1925,-0.205,-0.2171,-0.2112,-0.2081,-0.2036,-0.2,-0.1943,-0.1895,-0.206,-0.1975,-0.1987,-0.2024,-0.1997,-0.1987,-0.2001,-0.1919,-0.1922,-0.1923,-0.1924,0,-0.1433,-0.1448,-0.1527,-0.1573,-0.1652,-0.1664,-0.1737,-0.1757,-0.1803,-0.1927,-0.1896,-0.1923,-0.1997,-0.1894,-0.1841,-0.1774,-0.1762,-0.1719,-0.1744,-0.1766,-0.1729,-0.1667,-0.1443,0,0,0,0,0,-0.1342,-0.134,-0.1379,-0.1421,-0.1493,-0.153,-0.1644,-0.1719,-0.1843,-0.1741,-0.1813,-0.1755,-0.1682,-0.1707,-0.1592,-0.176,-0.1776,-0.1623,-0.1744,-0.1814,-0.1836,-0.1814,0,0,0,0,0,0,-0.1277,-0.1315,-0.1325,-0.1275,-0.1267,-0.1324,-0.1384,-0.1478,-0.1438,-0.1569,-0.1528,-0.1635,-0.1582,-0.1692,-0.1543,-0.1551,-0.1589,-0.1658,-0.1653,-0.1802,-0.1821,-0.1839,-0.1824,0,0,0,0,0]},{"header":{"parameterUnit":"m.s-1","parameterCategory":2,"la1":30.2991,"la2":30.254,"lo1":-89.0895,"lo2":-89.0444,"dy":0.0017,"dx":0.0017,"nx":28,"ny":28,"refTime":"2025-11-07T03:00:00:Z","depth":"4","parameterNumber":3,"parameterNumberName":"V-component_of_CURRENTS"},"data":[0,0,0,0,0,0,0,0,0,0,0,0,0,0,0,0,0,0,0,0,0,0,0,0,0,0,0,0,0,0,0,0,0,0,0,0,0,0,0,0,0,0,0,0,0,0,0,0,0,0,0,0,0,0,0,0,0,0,-0.024,-0.024,0,-0.0175,-0.0175,-0.0174,-0.0133,-0.0133,-0.0132,-0.0132,-0.0009,-0.0006,-0.0003,0,0,0,0,0,0,0,0,0,0,0,0,0,-0.0287,-0.0286,-0.024,-0.024,-0.0239,-0.0176,-0.0175,-0.0174,-0.0133,-0.0133,-0.0132,-0.0132,-0.001,-0.0006,-0.0003,0,0,0,0,0,0,0,0,0,0,0,0,0,-0.0248,-0.0286,-0.0241,-0.0212,-0.0209,-0.0176,-0.0174,-0.0173,-0.0133,-0.0132,-0.0132,-0.0132,-0.0011,-0.0007,-0.0002,0.0023,0,0,0.0012,0.0014,0,0,0,0,0,0,0,0,-0.025,-0.0246,-0.0217,-0.0214,-0.021,-0.0163,-0.0146,-0.0105,-0.0133,-0.016,-0.0132,-0.0132,-0.0056,-0.0048,-0.0035,0.0029,0.0034,0.0013,0.0016,0.0018,0.0019,0,0,0,0,0,0,0,-0.0253,-0.0248,-0.0213,-0.0216,-0.0212,-0.0188,-0.0182,-0.0138,-0.0108,-0.0158,-0.0155,-0.015,-0.0054,-0.004,-0.0032,0.0036,0.0013,0.0017,0.002,0.0022,0.0136,0.0136,0,0,0,0,0,0,-0.0266,-0.0251,-0.0216,-0.0212,-0.0231,-0.0188,-0.0181,-0.0177,-0.011,-0.01,-0.015,-0.0148,-0.0048,-0.0037,-0.0027,0.0007,0.0018,0.0022,0.0025,0.0136,0.0136,0.0136,0,0,0,0,0,0,-0.0267,-0.0263,-0.0218,-0.0231,-0.0223,-0.0187,-0.0183,-0.0176,-0.0165,-0.0105,-0.0093,-0.0146,-0.0047,-0.0034,0.0009,0.0012,0.0024,0.0029,0.0136,0.0136,0.0136,0.0076,0,0,0,0,0,0,-0.0269,-0.0264,-0.0269,-0.0232,-0.0223,-0.0205,-0.0183,-0.0175,-0.0162,-0.0159,-0.0097,-0.0086,-0.0046,0.0002,0.0014,0.0019,0.0032,0.0135,0.0136,0.0136,0.0078,0.0074,0.0071,0,0,0,0,0,-0.0271,-0.0276,-0.0269,-0.0265,-0.023,-0.0205,-0.0199,-0.0171,-0.0162,-0.016,-0.0117,-0.0088,0.0013,0.0006,0.002,0.0026,0.0135,0.0136,0.0136,0.0079,0.0075,0.0071,0,0,0,0,0,0,-0.0298,-0.0272,-0.0263,-0.0261,-0.0239,-0.0199,-0.0196,-0.0177,-0.0142,-0.014,-0.0084,-0.0069,-0.0032,0.0007,-0.0003,0.0061,0.0079,0.0082,0.0031,0.0027,0.0024,0.0009,0.0036,0,0,0,0,0,-0.0308,-0.0307,-0.0275,-0.0276,-0.0267,-0.0234,-0.0222,-0.0204,-0.0168,-0.0154,-0.011,-0.0062,-0.0018,0.001,0.0051,0.009,0.0127,0.0103,0.01,0.0097,0.0095,0.0154,0.0156,0.0138,0.0138,0.0138,0,0,-0.032,-0.0306,-0.0305,-0.0282,-0.0264,-0.0256,-0.0226,-0.0213,-0.0203,-0.0144,-0.0118,-0.0075,-0.0013,0.0025,0.0046,0.0059,0.0121,0.0097,0.0094,0.0094,0.0155,0.0157,0.0159,0.0138,0.0138,0.0138,0,0,-0.0343,-0.0331,-0.0337,-0.0322,-0.03,-0.0277,-0.0277,-0.024,-0.0221,-0.0191,-0.0147,-0.0102,-0.0038,0.001,0.0042,0.0048,0.0096,0.006,0.0039,0.0097,0.0099,0.0101,0.0142,0.0149,0.0064,0.0064,0.0064,0,-0.036,-0.0362,-0.0335,-0.0336,-0.033,-0.0291,-0.0296,-0.0268,-0.0222,-0.0204,-0.0191,-0.0094,-0.0044,0.0014,0.0014,0.0041,0.0074,0.0046,0.0092,0.0095,0.0098,0.014,0.0148,0.0061,0.0061,0.0062,0.0062,0,-0.0382,-0.0387,-0.039,-0.038,-0.0368,-0.0367,-0.0329,-0.0312,-0.0285,-0.0251,-0.0199,-0.013,-0.0072,-0.0047,-0.0013,0.0036,0.0051,0.0074,0.0097,0.0096,0.0141,0.015,0.0057,0.0058,0.0059,0.006,0,0,-0.0412,-0.0409,-0.0411,-0.0422,-0.0394,-0.0389,-0.0371,-0.034,-0.0329,-0.0273,-0.0247,-0.0165,-0.013,-0.0091,-0.0037,0.0019,0.0068,0.005,0.0054,0.0082,0.0184,0.0155,0.0163,0.0097,0.0099,0.01,0.0202,0,-0.0441,-0.0465,-0.0447,-0.0468,-0.0478,-0.0442,-0.0429,-0.0394,-0.0355,-0.0318,-0.0235,-0.019,-0.0144,-0.0118,-0.0057,0.0034,0.0091,0.0038,0.0188,0.0192,0.0161,0.0172,0.0104,0.0209,0.0211,0.0213,0.0214,0,-0.0466,-0.0481,-0.0512,-0.0522,-0.0522,-0.0526,-0.0505,-0.0488,-0.0419,-0.0385,-0.032,-0.0256,-0.0169,-0.0131,0.0024,-0.0015,0.0076,0.0151,0.0157,0.0158,0.0181,0.0216,0.0231,0.023,0.0228,0.0227,0.0226,0,-0.0505,-0.0526,-0.0558,-0.0561,-0.0559,-0.0568,-0.0562,-0.0513,-0.0499,-0.0427,-0.0405,-0.0294,-0.0235,-0.0112,0.0035,0.0031,0.0207,0.0224,0.029,0.0288,0.031,0.0307,0.0342,0.0342,0.0341,0.0341,0.0341,0,-0.0538,-0.0566,-0.0587,-0.0606,-0.0646,-0.0621,-0.0641,-0.0613,-0.0568,-0.0545,-0.0448,-0.0397,-0.0226,-0.0105,0.0023,0.0176,0.0201,0.0286,0.0315,0.0281,0.0273,0.0316,0.0311,0.0345,0.0344,0.0343,0.0343,0,-0.0572,-0.0584,-0.0631,-0.0655,-0.0669,-0.0697,-0.0709,-0.0712,-0.0662,-0.0629,-0.0607,-0.0466,-0.0309,-0.0139,0.0074,0.0157,0.0309,0.0364,0.0304,0.0328,0.0354,0.0346,0.0435,0.0435,0.0435,0.0435,0.0435,0,-0.0589,-0.0618,-0.0679,-0.0718,-0.0737,-0.0775,-0.0796,-0.0766,-0.0758,-0.0664,-0.0642,-0.0489,-0.0379,-0.0103,0.0067,0.0299,0.0338,0.04,0.0385,0.0345,0.0365,0.0357,0.0349,0.0434,0.0434,0.0434,0.0434,0,-0.0626,-0.0653,-0.0692,-0.0775,-0.0822,-0.0863,-0.0885,-0.0885,-0.0827,-0.0787,-0.065,-0.0495,-0.0315,-0.0102,0.0079,0.0247,0.0342,0.04,0.0401,0.0388,0.0346,0.0364,0.0356,0.0434,0.0434,0.0434,0.0434,0,-0.0653,-0.0696,-0.0755,-0.0821,-0.0888,-0.0926,-0.0933,-0.0898,-0.0872,-0.0753,-0.0706,-0.0496,-0.0364,-0.0127,0.0038,0.0193,0.0231,0.0267,0.0276,0.0278,0.0195,0.0117,0.0161,0,0,0,0,0,-0.0676,-0.0725,-0.0795,-0.0867,-0.0931,-0.0963,-0.0977,-0.0965,-0.0909,-0.0816,-0.0754,-0.0575,-0.0306,-0.0183,-0.0031,0.0014,0.0232,0.0192,0.0271,0.0432,0.0433,0.0359,0,0,0,0,0,0,-0.0697,-0.0764,-0.0797,-0.0884,-0.0938,-0.0997,-0.1007,-0.097,-0.0901,-0.0821,-0.0668,-0.0565,-0.0299,-0.039,-0.0035,0.0012,0.0076,0.0329,0.0331,0.0432,0.0433,0.0433,0.0357,0,0,0,0,0]}]]